Wind_Speed
34 34 33 32 31 29 28 27 25 24 23 23 21 21 20 19 18 17 16 14 13 13 12 11 11 11 10 9 8 8 7 7 7 7 8 8 8 8 8 8 8 8 8
36 36 36 35 34 32 30 29 28 27 26 24 24 23 22 22 20 19 18 17 15 14 14 13 12 11 11 10 10 10 9 8 8 8 8 8 8 8 8 9 9 9 10
38 38 37 36 35 34 33 32 30 30 29 27 26 25 24 23 23 22 21 19 18 17 16 15 14 13 12 12 11 11 10 9 9 9 9 9 9 9 10 10 10 11 11
41 40 39 38 37 36 35 35 34 32 31 30 29 28 27 25 25 24 23 22 20 19 18 17 16 16 14 13 13 12 12 12 11 11 11 11 11 11 11 11 11 12 12
43 42 41 40 39 38 37 36 36 35 33 32 31 30 29 28 27 26 25 24 23 21 20 19 19 18 17 16 15 14 14 14 13 13 13 13 13 13 13 12 12 13 12
46 44 43 43 42 41 40 38 38 37 35 35 33 33 31 30 29 29 27 26 25 24 23 21 20 19 19 18 17 16 15 15 15 15 15 14 14 14 15 14 14 14 14
48 47 46 45 44 43 42 41 40 39 38 37 36 34 34 33 32 31 30 28 28 27 25 24 22 21 20 20 19 19 18 17 17 17 16 16 16 16 16 15 16 15 15
50 49 48 47 47 45 44 44 43 41 40 39 38 36 36 35 34 33 32 30 30 29 28 26 25 23 22 21 21 21 20 19 19 18 17 17 17 17 17 17 17 17 17
52 51 50 50 49 48 46 46 45 43 42 41 40 38 37 37 36 35 34 33 32 31 30 28 27 25 24 23 22 22 22 21 21 20 19 19 19 19 19 19 19 18 19
52 52 52 52 51 50 49 47 46 46 45 44 43 41 40 38 38 37 36 35 34 33 32 31 29 28 26 25 24 23 23 22 22 22 21 20 21 20 20 20 21 21 21
52 52 53 53 52 51 51 49 48 47 46 45 44 44 42 40 39 39 38 37 37 36 34 33 31 30 28 27 26 25 24 24 23 23 22 22 22 23 23 23 23 23 23
53 53 53 53 53 53 52 51 50 50 48 46 46 45 44 43 41 40 39 38 38 38 37 35 33 32 31 29 28 27 26 26 26 25 25 25 25 25 25 25 25 25 25
53 53 54 54 54 54 54 53 52 51 51 49 47 47 46 44 43 41 40 39 39 39 38 37 35 34 33 32 31 30 29 29 29 28 27 27 28 28 28 28 28 27 27
52 52 54 55 56 55 55 55 53 52 52 51 49 48 47 45 44 43 42 41 40 40 39 38 37 35 35 34 33 33 32 32 31 31 30 30 30 30 30 29 30 29 29
52 54 54 56 56 57 56 56 55 54 54 53 52 50 50 48 46 44 43 42 42 42 41 39 38 38 37 36 36 35 35 34 34 33 32 32 32 32 32 32 32 32 31
52 54 55 55 56 56 56 56 56 55 55 55 54 53 52 50 48 47 45 44 44 44 43 42 40 40 39 39 38 37 37 37 37 36 35 34 34 34 34 34 34 34 34
51 53 55 55 56 56 56 56 56 56 55 55 55 54 54 53 51 50 48 46 45 45 45 44 43 42 41 40 39 38 38 38 38 37 37 36 36 36 35 36 35 35 34
51 52 53 54 55 56 56 56 56 56 56 56 55 55 55 55 54 53 51 49 48 47 46 45 44 43 43 42 41 40 40 39 39 38 39 38 38 38 37 36 36 36 36
50 51 52 53 54 55 56 56 56 56 56 55 55 55 54 54 54 54 53 51 49 48 48 47 46 45 44 44 43 42 42 42 41 40 40 41 41 40 39 38 38 38 38
50 52 52 53 54 55 55 55 56 56 56 56 56 56 55 54 54 54 54 53 52 51 49 48 48 47 46 46 46 44 43 43 43 43 42 42 41 41 41 41 41 41 40
50 52 53 53 53 55 55 56 56 56 56 56 55 55 55 54 55 54 54 53 53 52 50 50 50 49 49 48 47 46 45 45 45 44 44 43 42 42 43 43 43 43 43
49 51 52 53 54 54 54 54 56 57 57 57 56 54 55 55 55 55 54 54 53 53 51 50 50 51 50 49 49 48 48 47 46 46 45 44 44 44 44 44 44 45 46
48 50 51 51 52 53 54 54 56 58 57 57 56 55 55 55 56 56 56 56 55 54 53 51 51 50 50 51 51 50 49 47 47 48 48 47 46 46 46 47 47 47 47
48 50 51 52 53 53 54 54 55 57 58 58 58 57 56 55 55 55 56 56 55 55 54 53 52 52 52 52 52 50 50 49 48 48 48 48 48 48 47 48 48 49 49
47 48 51 52 52 53 54 54 55 55 56 57 58 58 57 56 56 55 55 55 56 55 54 54 53 53 54 53 51 51 51 51 50 49 49 50 49 50 50 50 50 50 51
48 48 49 51 51 52 53 53 55 56 56 56 57 58 58 57 57 57 56 56 56 56 54 54 54 54 53 53 52 51 52 52 52 51 50 50 51 52 52 52 52 52 52
Wind_Direction
240 241 241 241 241 240 241 241 239 239 239 237 237 238 237 239 242 244 246 249 251 253 257 262 265 268 272 274 276 284 293 303 309 318 324 329 332 332 333 336 336 337 338
240 241 240 241 241 241 241 241 241 240 240 239 239 240 239 239 242 244 246 248 251 254 256 259 263 266 269 274 277 280 286 291 297 306 314 319 322 323 324 327 331 331 331
240 240 240 241 241 241 241 241 241 241 240 241 241 242 242 241 242 245 247 249 250 252 254 256 258 262 267 271 276 278 280 285 290 297 303 308 310 312 315 318 320 323 323
241 241 241 241 241 241 241 241 241 241 240 240 241 243 244 243 244 247 249 250 251 251 253 255 257 259 261 266 271 274 276 279 285 289 294 298 301 304 307 310 313 315 318
240 240 240 240 240 240 241 242 242 242 241 241 241 242 244 245 245 246 248 249 250 251 252 254 256 258 259 263 267 270 273 274 278 284 288 292 295 299 301 303 306 310 312
240 241 240 239 240 240 240 241 241 241 242 242 243 243 244 246 246 246 247 248 250 250 251 253 255 257 258 260 263 267 271 273 276 279 283 286 289 293 297 299 300 303 306
241 241 240 239 240 241 241 240 241 241 242 243 243 244 245 245 247 247 247 248 249 250 250 252 254 256 258 259 262 265 269 273 275 277 280 282 285 289 293 296 296 298 301
241 241 240 239 239 240 241 241 241 242 242 243 244 244 245 245 247 247 246 247 248 249 250 251 253 255 257 259 261 263 266 270 274 276 278 281 283 285 287 290 293 294 297
242 242 241 240 239 239 240 241 242 241 242 243 244 244 245 246 247 246 246 247 248 248 249 250 251 253 255 257 259 261 264 268 272 274 276 277 280 282 284 287 289 291 294
242 242 241 239 239 239 239 240 241 241 242 242 244 245 245 246 247 247 246 247 248 248 249 249 250 252 253 255 257 261 264 267 269 272 274 277 279 280 283 284 287 289 292
243 242 241 240 239 238 238 239 240 240 241 241 243 244 245 245 247 247 246 247 248 248 248 249 250 251 253 255 256 259 262 266 268 270 271 276 279 279 280 283 286 288 290
243 242 241 240 239 238 238 238 239 239 240 241 242 243 244 245 246 247 246 246 246 247 247 248 249 250 252 254 256 259 261 264 266 268 270 274 277 279 280 282 284 286 288
243 241 240 239 239 238 238 238 239 239 240 240 242 242 243 244 245 246 246 245 245 246 245 246 247 249 251 254 256 258 261 263 265 268 270 272 275 277 279 281 281 284 287
243 241 240 238 238 238 238 238 238 239 239 240 241 242 242 242 244 244 245 246 246 245 245 246 248 250 252 253 255 257 260 262 264 267 269 271 274 275 277 280 282 283 285
242 241 240 238 238 238 238 237 238 239 239 239 240 241 241 241 243 244 245 246 246 245 245 246 248 250 252 254 255 257 259 261 263 266 268 271 272 274 276 279 281 282 284
242 241 240 239 239 239 239 238 239 239 240 239 239 240 241 240 241 243 244 245 246 246 246 246 248 251 252 254 256 257 258 261 264 266 268 270 272 274 276 278 279 280 282
242 241 240 239 239 240 239 238 238 239 239 239 239 240 241 241 241 243 244 244 246 247 247 248 249 251 252 254 255 257 258 261 264 266 267 269 271 273 275 277 278 279 281
241 241 240 239 239 239 238 238 238 238 239 239 239 240 241 242 242 242 243 245 246 247 248 249 249 250 252 253 255 256 257 260 263 265 266 268 270 272 274 275 276 278 280
243 241 241 239 238 238 237 237 238 239 239 239 240 240 241 242 243 243 243 244 246 247 248 249 249 250 252 253 254 256 258 260 262 264 266 268 269 270 273 274 276 277 279
244 241 241 238 237 236 236 236 237 239 239 240 241 241 242 242 243 243 244 245 246 247 248 249 249 250 251 253 255 257 259 260 262 264 266 267 268 270 272 274 275 277 278
245 243 241 239 238 237 237 236 236 238 239 239 240 241 243 243 244 244 245 246 247 247 248 248 249 251 252 253 255 257 258 260 261 263 265 266 268 270 272 274 275 276 277
248 245 242 241 239 238 238 238 238 238 238 239 240 241 243 243 244 245 246 247 247 247 248 249 250 251 253 253 254 257 258 259 261 263 265 267 269 270 273 274 274 276 278
248 246 245 244 242 241 240 241 241 239 239 240 241 242 243 244 245 245 246 247 248 248 249 251 252 252 253 254 255 258 259 260 261 263 265 267 269 271 273 275 275 277 279
248 246 245 245 245 245 244 243 242 242 241 241 241 242 244 245 246 245 247 247 247 247 250 251 253 253 254 255 257 258 258 259 261 263 265 268 270 271 273 274 275 276 277
248 246 246 247 247 246 245 244 243 243 242 242 242 243 243 245 245 246 247 247 247 249 250 251 253 254 254 255 257 258 259 260 262 264 266 267 268 271 273 274 275 276 277
248 248 248 248 248 247 247 246 245 244 243 242 242 243 244 245 245 245 246 247 248 249 250 251 252 253 254 255 257 259 259 261 262 264 266 267 269 271 272 274 276 276 278
Height
5810 5813 5816 5819 5822 5825 5827 5830 5832 5833 5835 5837 5839 5841 5843 5845 5846 5847 5848 5850 5850 5851 5852 5853 5853 5854 5854 5854 5854 5854 5854 5854 5853 5853 5852 5851 5850 5849 5848 5847 5846 5845 5844
5803 5805 5809 5812 5815 5818 5821 5824 5826 5828 5830 5832 5834 5836 5838 5840 5842 5843 5845 5846 5847 5848 5849 5850 5850 5851 5851 5852 5852 5852 5852 5852 5852 5851 5851 5850 5849 5848 5847 5846 5845 5844 5843
5794 5797 5801 5805 5808 5811 5814 5817 5819 5822 5825 5827 5829 5831 5833 5834 5837 5838 5840 5842 5843 5844 5845 5846 5847 5848 5848 5849 5849 5849 5850 5849 5849 5849 5849 5848 5847 5847 5846 5845 5844 5843 5842
5785 5789 5792 5796 5800 5803 5806 5809 5812 5815 5818 5821 5823 5825 5827 5829 5831 5833 5835 5837 5839 5840 5841 5843 5844 5845 5845 5846 5846 5846 5847 5847 5847 5847 5846 5846 5845 5844 5844 5843 5842 5841 5840
5775 5779 5783 5787 5791 5795 5798 5801 5805 5808 5811 5814 5816 5819 5821 5823 5825 5827 5830 5832 5834 5835 5837 5838 5839 5840 5841 5842 5843 5843 5843 5844 5844 5844 5844 5843 5843 5842 5841 5840 5839 5838 5837
5765 5769 5773 5778 5782 5786 5790 5793 5796 5800 5803 5806 5809 5812 5814 5817 5819 5821 5824 5826 5828 5830 5832 5833 5835 5836 5837 5838 5839 5840 5840 5840 5840 5840 5840 5840 5840 5839 5838 5837 5837 5836 5834
5754 5758 5763 5767 5772 5776 5780 5784 5788 5791 5795 5798 5801 5804 5807 5810 5812 5815 5817 5819 5821 5824 5826 5828 5829 5831 5832 5833 5834 5835 5836 5836 5836 5836 5836 5836 5836 5835 5835 5834 5833 5832 5831
5742 5747 5752 5756 5761 5766 5770 5774 5778 5782 5785 5789 5793 5795 5798 5802 5804 5807 5810 5812 5815 5817 5820 5822 5824 5826 5827 5828 5829 5830 5831 5831 5832 5832 5832 5832 5832 5831 5831 5830 5829 5829 5828
5729 5734 5740 5745 5750 5755 5760 5764 5768 5772 5776 5780 5783 5787 5790 5793 5796 5799 5802 5805 5807 5810 5812 5815 5817 5819 5821 5823 5824 5825 5826 5827 5827 5827 5828 5827 5827 5827 5826 5826 5825 5824 5823
5717 5722 5727 5732 5738 5743 5748 5752 5756 5761 5765 5769 5773 5777 5781 5784 5787 5791 5794 5797 5799 5802 5805 5808 5810 5813 5815 5817 5818 5819 5820 5821 5822 5822 5822 5822 5822 5822 5822 5821 5821 5820 5819
5704 5709 5714 5720 5725 5731 5736 5741 5745 5749 5754 5758 5762 5766 5770 5774 5777 5781 5785 5788 5791 5794 5797 5800 5803 5806 5808 5810 5812 5813 5814 5815 5816 5816 5817 5817 5817 5817 5816 5816 5815 5814 5813
5691 5696 5701 5707 5713 5718 5723 5728 5733 5738 5743 5747 5751 5756 5759 5763 5767 5771 5775 5779 5782 5785 5789 5792 5795 5798 5800 5803 5804 5806 5807 5808 5809 5810 5810 5811 5811 5811 5810 5810 5809 5809 5808
5679 5683 5689 5694 5699 5704 5710 5716 5721 5726 5731 5736 5740 5745 5749 5753 5757 5761 5764 5768 5772 5776 5779 5783 5786 5790 5792 5795 5797 5798 5800 5801 5802 5803 5804 5804 5804 5804 5804 5803 5803 5802 5801
5666 5670 5675 5681 5686 5691 5697 5703 5709 5714 5719 5724 5729 5733 5737 5742 5746 5750 5754 5758 5762 5766 5769 5774 5777 5780 5783 5786 5789 5790 5792 5793 5795 5796 5796 5797 5797 5797 5797 5796 5796 5795 5794
5652 5657 5662 5667 5673 5678 5684 5690 5696 5701 5706 5711 5716 5721 5726 5731 5735 5739 5743 5748 5752 5756 5760 5764 5767 5771 5774 5777 5780 5782 5783 5785 5786 5788 5788 5789 5789 5789 5789 5789 5788 5788 5787
5639 5644 5649 5654 5660 5665 5671 5677 5682 5688 5693 5698 5704 5709 5714 5719 5724 5728 5732 5737 5741 5745 5750 5754 5757 5761 5764 5767 5770 5772 5774 5776 5777 5779 5780 5780 5781 5781 5781 5781 5780 5780 5779
5626 5631 5636 5641 5646 5652 5657 5663 5669 5675 5680 5686 5691 5696 5702 5707 5712 5717 5721 5725 5730 5734 5739 5743 5747 5750 5754 5757 5760 5762 5764 5766 5768 5769 5771 5771 5772 5772 5772 5772 5771 5771 5770
5614 5618 5622 5628 5633 5638 5644 5650 5656 5662 5668 5673 5679 5684 5690 5695 5700 5705 5710 5714 5719 5723 5727 5731 5736 5739 5743 5746 5749 5752 5754 5756 5758 5759 5761 5762 5762 5763 5762 5762 5762 5761 5760
5601 5605 5610 5615 5619 5625 5631 5637 5643 5649 5654 5660 5666 5672 5677 5682 5687 5692 5697 5702 5707 5711 5715 5720 5724 5728 5732 5735 5738 5741 5743 5745 5747 5749 5750 5751 5752 5752 5753 5752 5752 5751 5751
5588 5592 5597 5601 5606 5612 5618 5624 5630 5636 5642 5647 5653 5659 5664 5670 5675 5680 5685 5690 5695 5699 5703 5708 5712 5717 5720 5723 5726 5729 5732 5734 5737 5738 5739 5740 5741 5742 5742 5742 5742 5741 5740
5575 5579 5584 5589 5594 5599 5605 5611 5617 5623 5629 5635 5640 5646 5651 5657 5663 5667 5673 5678 5682 5687 5691 5695 5700 5704 5708 5712 5715 5718 5720 5723 5725 5726 5728 5729 5730 5731 5731 5731 5730 5730 5729
5563 5566 5571 5576 5581 5586 5591 5597 5603 5609 5615 5621 5627 5633 5639 5644 5650 5655 5660 5665 5670 5675 5679 5683 5688 5692 5696 5700 5703 5705 5708 5711 5714 5716 5716 5718 5718 5719 5719 5719 5719 5718 5718
5551 5554 5558 5563 5568 5573 5578 5583 5589 5595 5601 5608 5614 5619 5625 5631 5636 5641 5646 5651 5657 5662 5667 5671 5675 5679 5683 5687 5690 5693 5696 5698 5701 5703 5704 5705 5706 5707 5707 5707 5706 5706 5705
5539 5543 5547 5551 5556 5561 5565 5570 5575 5580 5587 5594 5600 5606 5612 5617 5622 5627 5632 5638 5643 5648 5654 5658 5663 5667 5670 5673 5676 5680 5682 5685 5687 5689 5691 5693 5694 5694 5694 5694 5693 5692 5692
5527 5530 5534 5538 5543 5548 5552 5556 5561 5566 5572 5579 5585 5591 5597 5603 5609 5614 5619 5624 5630 5634 5639 5644 5648 5652 5656 5659 5662 5665 5668 5671 5674 5676 5678 5679 5681 5681 5681 5680 5679 5678 5678
5514 5518 5521 5526 5530 5534 5538 5542 5547 5552 5559 5565 5570 5576 5583 5589 5594 5598 5604 5609 5615 5620 5625 5629 5634 5638 5641 5645 5648 5651 5654 5657 5659 5662 5664 5665 5666 5666 5666 5666 5665 5664 5663